Location: Unspecified
(0.0000°N, 0.0000°E)
Time: 13:51:13
(UTC+00:00)

Envisat - Pass Details

Date: 19 September 2019
Orbit: 764 x 766 km, 98.1° (Epoch: 18 September)

Event Time Altitude Azimuth Distance (km) Brightness Sun altitude
Rises 19:47:54 0° 206° (SSW) 3,229 6.5 -28.5°
Reaches altitude 10° 19:51:59 10° 239° (WSW) 2,299 6.1 -29.5°
Maximum altitude 19:53:32 11° 257° (WSW) 2,204 6.2 -29.9°
Drops below altitude 10° 19:55:05 10° 275° (W) 2,296 6.4 -30.3°
Sets 19:59:11 0° 308° (NW) 3,217 6.9 -31.3°
